AUA7KM LOWW-ESGG

Flight info

Callsign AUA7KM
Flight time 1h 33m
Altitude 30000
Route LANUX2C/29 LANUX DCT TABEM DCT VLM DCT BEKVI DCT HDO M725 RENKI DCT KOGIM M44 INRER L621 ROKAM L997 RISMA
Aircraft A320/M-SDE3FGHIRWY/LB1

Departure

Time 2026-04-22 18:21
Airport Vienna International Airport (LOWW)

Arrival

Time 2026-04-22 19:54
Airport Göteborg Landvetter Airport (ESGG)
Time Latitude Longitude Altitude Speed Heading
2026-04-22 17:47 48.11764 16.56627 623 ft 0 kts 26°
2026-04-22 18:10 48.11750 16.56617 620 ft 2 kts 26°
2026-04-22 18:10 48.11736 16.56606 618 ft 2 kts 26°
2026-04-22 18:10 48.11721 16.56596 617 ft 2 kts 26°
2026-04-22 18:11 48.11706 16.56588 622 ft 2 kts 359°
2026-04-22 18:11 48.11690 16.56591 617 ft 2 kts 328°
2026-04-22 18:11 48.11679 16.56608 624 ft 2 kts 297°
2026-04-22 18:11 48.11678 16.56610 624 ft 0 kts 297°
2026-04-22 18:14 48.11683 16.56595 612 ft 6 kts 297°
2026-04-22 18:14 48.11708 16.56521 614 ft 9 kts 297°
2026-04-22 18:15 48.11738 16.56430 611 ft 10 kts 295°
2026-04-22 18:15 48.11760 16.56351 608 ft 8 kts 278°
2026-04-22 18:15 48.11734 16.56300 620 ft 6 kts 208°
2026-04-22 18:15 48.11698 16.56273 617 ft 8 kts 206°
2026-04-22 18:16 48.11628 16.56207 619 ft 13 kts 218°
2026-04-22 18:16 48.11557 16.56209 620 ft 11 kts 130°
2026-04-22 18:16 48.11520 16.56316 609 ft 14 kts 117°
2026-04-22 18:16 48.11468 16.56479 613 ft 19 kts 116°
2026-04-22 18:17 48.11412 16.56651 615 ft 17 kts 116°
2026-04-22 18:17 48.11363 16.56805 613 ft 15 kts 115°
2026-04-22 18:17 48.11319 16.56942 613 ft 14 kts 116°
2026-04-22 18:17 48.11279 16.57063 613 ft 12 kts 116°
2026-04-22 18:18 48.11243 16.57170 610 ft 11 kts 115°
2026-04-22 18:18 48.11212 16.57267 619 ft 12 kts 116°
2026-04-22 18:18 48.11168 16.57402 610 ft 15 kts 116°
2026-04-22 18:18 48.11125 16.57535 608 ft 13 kts 116°
2026-04-22 18:19 48.11080 16.57644 613 ft 11 kts 147°
2026-04-22 18:19 48.11010 16.57625 608 ft 10 kts 204°
2026-04-22 18:19 48.10953 16.57581 611 ft 9 kts 207°
2026-04-22 18:19 48.10924 16.57519 617 ft 7 kts 265°
2026-04-22 18:20 48.10937 16.57461 610 ft 5 kts 296°
2026-04-22 18:20 48.10971 16.57358 619 ft 30 kts 296°
2026-04-22 18:20 48.11174 16.56736 620 ft 99 kts 296°
2026-04-22 18:20 48.11560 16.55552 617 ft 152 kts 295°
2026-04-22 18:21 48.12052 16.54071 1085 ft 157 kts 299°
2026-04-22 18:21 48.12286 16.52460 1738 ft 166 kts 267°
2026-04-22 18:21 48.11939 16.50737 2234 ft 184 kts 259°
2026-04-22 18:21 48.11627 16.48766 2539 ft 205 kts 265°
2026-04-22 18:22 48.11481 16.46551 2856 ft 224 kts 279°
2026-04-22 18:22 48.11701 16.44130 3217 ft 246 kts 284°
2026-04-22 18:22 48.12022 16.41568 3971 ft 254 kts 285°
2026-04-22 18:22 48.12355 16.38954 4867 ft 258 kts 285°
2026-04-22 18:23 48.12679 16.36292 5769 ft 261 kts 284°
2026-04-22 18:23 48.12992 16.33599 6661 ft 265 kts 284°
2026-04-22 18:23 48.13295 16.30862 7519 ft 268 kts 283°
2026-04-22 18:24 48.13908 16.25269 9176 ft 276 kts 283°
2026-04-22 18:24 48.14249 16.22413 9982 ft 280 kts 289°
2026-04-22 18:24 48.16122 16.17051 10632 ft 314 kts 305°
2026-04-22 18:25 48.17319 16.14189 11166 ft 325 kts 305°
2026-04-22 18:25 48.18516 16.11335 11860 ft 330 kts 306°
2026-04-22 18:25 48.19757 16.08350 12578 ft 335 kts 306°
2026-04-22 18:26 48.22376 16.02560 13974 ft 339 kts 320°
2026-04-22 18:26 48.24283 16.00556 14589 ft 335 kts 339°
2026-04-22 18:26 48.26446 15.99224 15245 ft 337 kts 341°
2026-04-22 18:26 48.28633 15.97922 15891 ft 340 kts 342°
2026-04-22 18:27 48.30847 15.96613 16536 ft 343 kts 342°
2026-04-22 18:27 48.33077 15.95297 17166 ft 347 kts 342°
2026-04-22 18:27 48.35333 15.93960 17787 ft 350 kts 342°
2026-04-22 18:27 48.37609 15.92605 18421 ft 353 kts 342°
2026-04-22 18:28 48.39900 15.91234 18966 ft 356 kts 342°
2026-04-22 18:28 48.42216 15.89843 19491 ft 360 kts 342°
2026-04-22 18:28 48.44550 15.88438 20008 ft 364 kts 342°
2026-04-22 18:28 48.46912 15.87015 20534 ft 367 kts 342°
2026-04-22 18:29 48.49298 15.85577 21069 ft 371 kts 342°
2026-04-22 18:29 48.51700 15.84122 21591 ft 374 kts 342°
2026-04-22 18:29 48.54122 15.82614 22125 ft 378 kts 342°
2026-04-22 18:29 48.56555 15.81068 22646 ft 382 kts 342°
2026-04-22 18:30 48.59014 15.79491 23148 ft 385 kts 342°
2026-04-22 18:30 48.63995 15.76288 24051 ft 393 kts 342°
2026-04-22 18:30 48.66522 15.74665 24432 ft 396 kts 343°
2026-04-22 18:31 48.69070 15.73031 24772 ft 400 kts 343°
2026-04-22 18:31 48.71658 15.71377 25054 ft 406 kts 343°
2026-04-22 18:31 48.74269 15.69706 25406 ft 410 kts 343°
2026-04-22 18:31 48.76908 15.68013 25743 ft 413 kts 343°
2026-04-22 18:32 48.79562 15.66306 26079 ft 416 kts 343°
2026-04-22 18:32 48.82239 15.64578 26410 ft 419 kts 343°
2026-04-22 18:32 48.84937 15.62838 26755 ft 423 kts 343°
2026-04-22 18:32 48.87648 15.61084 27084 ft 426 kts 344°
2026-04-22 18:33 48.90383 15.59311 27412 ft 428 kts 344°
2026-04-22 18:33 48.93132 15.57529 27714 ft 432 kts 344°
2026-04-22 18:33 48.95909 15.55736 28016 ft 435 kts 345°
2026-04-22 18:33 48.98706 15.53929 28292 ft 438 kts 344°
2026-04-22 18:34 49.01518 15.52109 28579 ft 441 kts 344°
2026-04-22 18:34 49.04357 15.50272 28879 ft 444 kts 345°
2026-04-22 18:34 49.07207 15.48425 29156 ft 447 kts 345°
2026-04-22 18:34 49.10042 15.46583 29430 ft 450 kts 345°
2026-04-22 18:35 49.12963 15.44679 29694 ft 452 kts 345°
2026-04-22 18:35 49.15831 15.42805 29899 ft 456 kts 345°
2026-04-22 18:35 49.18758 15.40887 30047 ft 460 kts 345°
2026-04-22 18:35 49.21714 15.38948 30232 ft 463 kts 345°
2026-04-22 18:36 49.24677 15.36999 30268 ft 464 kts 345°
2026-04-22 18:36 49.30617 15.33091 30261 ft 465 kts 345°
2026-04-22 18:37 49.36562 15.29174 30256 ft 466 kts 344°
2026-04-22 18:37 49.41517 15.25906 30241 ft 466 kts 344°
2026-04-22 18:38 49.48476 15.21298 30253 ft 466 kts 344°
2026-04-22 18:38 49.54426 15.17352 30316 ft 467 kts 344°
2026-04-22 18:39 49.60391 15.13383 30951 ft 464 kts 343°
2026-04-22 18:39 49.63341 15.11414 31268 ft 463 kts 343°
2026-04-22 18:39 49.66295 15.09442 31582 ft 461 kts 343°
2026-04-22 18:39 49.69230 15.07477 31914 ft 460 kts 343°
2026-04-22 18:40 49.72079 15.05162 32246 ft 465 kts 335°
2026-04-22 18:40 49.74842 15.02585 32553 ft 464 kts 335°
2026-04-22 18:40 49.77607 15.00012 32883 ft 463 kts 335°
2026-04-22 18:40 49.80364 14.97454 33229 ft 461 kts 335°
2026-04-22 18:41 49.83110 14.94911 33514 ft 460 kts 335°
2026-04-22 18:41 49.85851 14.92366 33790 ft 458 kts 335°
2026-04-22 18:41 49.88575 14.89830 34069 ft 457 kts 335°
2026-04-22 18:41 49.91263 14.87322 34231 ft 456 kts 335°
2026-04-22 18:42 49.96699 14.82236 34265 ft 457 kts 335°
2026-04-22 18:42 50.02138 14.77132 34269 ft 457 kts 335°
2026-04-22 18:43 50.07670 14.72381 34275 ft 449 kts 345°
2026-04-22 18:43 50.13586 14.69682 34274 ft 442 kts 352°
2026-04-22 18:44 50.19541 14.67278 34269 ft 442 kts 352°
2026-04-22 18:44 50.25498 14.64841 34267 ft 442 kts 352°
2026-04-22 18:45 50.31449 14.62399 34263 ft 442 kts 352°
2026-04-22 18:45 50.37399 14.59950 34258 ft 442 kts 352°
2026-04-22 18:46 50.43349 14.57503 34242 ft 442 kts 352°
2026-04-22 18:46 50.49310 14.55051 34249 ft 443 kts 352°
2026-04-22 18:47 50.55279 14.52579 34237 ft 444 kts 352°
2026-04-22 18:47 50.61221 14.50111 34248 ft 445 kts 352°
2026-04-22 18:48 50.67205 14.47619 34237 ft 445 kts 352°
2026-04-22 18:48 50.73236 14.45100 34249 ft 446 kts 352°
2026-04-22 18:49 50.79235 14.42596 34255 ft 446 kts 352°
2026-04-22 18:49 50.85199 14.40091 34263 ft 447 kts 352°
2026-04-22 18:50 50.91208 14.37565 34268 ft 447 kts 353°
2026-04-22 18:50 50.97256 14.36005 34254 ft 439 kts
2026-04-22 18:51 51.03323 14.34820 34256 ft 439 kts
2026-04-22 18:51 51.09390 14.33628 34261 ft 439 kts
2026-04-22 18:52 51.15463 14.32428 34252 ft 440 kts
2026-04-22 18:52 51.21547 14.31215 34244 ft 441 kts
2026-04-22 18:53 51.27639 14.29996 34254 ft 441 kts
2026-04-22 18:53 51.33734 14.28779 34247 ft 442 kts
2026-04-22 18:54 51.39832 14.27560 34258 ft 442 kts
2026-04-22 18:54 51.45938 14.26332 34237 ft 442 kts
2026-04-22 18:55 51.52037 14.25105 34243 ft 442 kts
2026-04-22 18:55 51.58137 14.23883 34247 ft 442 kts
2026-04-22 18:56 51.64239 14.22658 34256 ft 442 kts
2026-04-22 18:56 51.70342 14.21261 34240 ft 444 kts
2026-04-22 18:57 51.76444 14.19726 34246 ft 444 kts
2026-04-22 18:57 51.82545 14.18196 34251 ft 443 kts
2026-04-22 18:58 51.88609 14.16729 34266 ft 443 kts
2026-04-22 18:58 51.94705 14.15287 34254 ft 442 kts
2026-04-22 18:59 52.00792 14.13844 34268 ft 442 kts
2026-04-22 18:59 52.06873 14.12379 34268 ft 442 kts
2026-04-22 19:00 52.12950 14.10897 34266 ft 441 kts
2026-04-22 19:00 52.19021 14.09415 34255 ft 441 kts
2026-04-22 19:01 52.25082 14.07930 34268 ft 440 kts
2026-04-22 19:01 52.31142 14.06451 34276 ft 440 kts
2026-04-22 19:02 52.36172 14.05218 34274 ft 440 kts
2026-04-22 19:02 52.42218 14.03738 34237 ft 439 kts
2026-04-22 19:03 52.48261 14.02267 34251 ft 439 kts
2026-04-22 19:03 52.54305 14.00772 34255 ft 439 kts
2026-04-22 19:04 52.60349 13.99261 34261 ft 439 kts
2026-04-22 19:04 52.66393 13.97752 34262 ft 439 kts
2026-04-22 19:05 52.72436 13.96253 34263 ft 439 kts
2026-04-22 19:05 52.78477 13.94740 34265 ft 439 kts
2026-04-22 19:06 52.84526 13.93227 34264 ft 439 kts
2026-04-22 19:07 52.93584 13.90958 34244 ft 439 kts
2026-04-22 19:07 52.99582 13.89449 34266 ft 438 kts
2026-04-22 19:08 53.05605 13.87927 34272 ft 438 kts
2026-04-22 19:08 53.11623 13.86394 34259 ft 438 kts
2026-04-22 19:09 53.17649 13.84861 34244 ft 439 kts
2026-04-22 19:09 53.23683 13.83320 34238 ft 439 kts
2026-04-22 19:10 53.29714 13.81773 34240 ft 438 kts
2026-04-22 19:10 53.35742 13.80221 34245 ft 438 kts
2026-04-22 19:11 53.41775 13.78673 34247 ft 438 kts
2026-04-22 19:11 53.47800 13.77131 34247 ft 438 kts
2026-04-22 19:12 53.53816 13.75575 34263 ft 437 kts 360°
2026-04-22 19:12 53.59826 13.74007 34262 ft 437 kts 360°
2026-04-22 19:13 53.65832 13.72433 34258 ft 437 kts 360°
2026-04-22 19:13 53.71836 13.70876 34235 ft 436 kts 360°
2026-04-22 19:14 53.77839 13.69311 34246 ft 436 kts 359°
2026-04-22 19:14 53.83793 13.67748 34236 ft 436 kts 359°
2026-04-22 19:15 53.88821 13.66414 34235 ft 437 kts 359°
2026-04-22 19:15 53.95800 13.64570 34241 ft 437 kts 359°
2026-04-22 19:16 54.01847 13.62981 34228 ft 437 kts 359°
2026-04-22 19:16 54.07851 13.61391 34240 ft 437 kts 359°
2026-04-22 19:17 54.13851 13.59787 34246 ft 436 kts 359°
2026-04-22 19:17 54.19811 13.58200 34245 ft 436 kts 359°
2026-04-22 19:18 54.25816 13.56585 34220 ft 436 kts 358°
2026-04-22 19:18 54.31810 13.54957 34231 ft 436 kts 358°
2026-04-22 19:19 54.37803 13.53334 34235 ft 436 kts 358°
2026-04-22 19:19 54.43796 13.51712 34238 ft 436 kts 358°
2026-04-22 19:20 54.49784 13.50089 34234 ft 436 kts 359°
2026-04-22 19:20 54.55775 13.48476 34214 ft 436 kts 358°
2026-04-22 19:21 54.61765 13.46840 34226 ft 436 kts 358°
2026-04-22 19:21 54.67755 13.45198 34231 ft 436 kts 358°
2026-04-22 19:22 54.73744 13.43561 34233 ft 436 kts 358°
2026-04-22 19:22 54.79739 13.41921 34226 ft 436 kts 358°
2026-04-22 19:23 54.85718 13.40272 34226 ft 435 kts 357°
2026-04-22 19:23 54.91689 13.38560 34238 ft 437 kts 354°
2026-04-22 19:24 54.97548 13.35755 34239 ft 440 kts 351°
2026-04-22 19:24 55.03438 13.32847 34238 ft 440 kts 351°
2026-04-22 19:25 55.09324 13.29940 34229 ft 439 kts 351°
2026-04-22 19:25 55.15204 13.27038 34216 ft 439 kts 351°
2026-04-22 19:26 55.21088 13.24119 34213 ft 440 kts 351°
2026-04-22 19:26 55.26985 13.21185 34216 ft 440 kts 350°
2026-04-22 19:27 55.32877 13.18223 34219 ft 441 kts 350°
2026-04-22 19:27 55.38774 13.15275 34222 ft 441 kts 350°
2026-04-22 19:28 55.44673 13.12328 34232 ft 441 kts 350°
2026-04-22 19:28 55.50571 13.09367 34236 ft 441 kts 350°
2026-04-22 19:29 55.56466 13.06381 34243 ft 441 kts 350°
2026-04-22 19:29 55.62362 13.03390 34234 ft 441 kts 350°
2026-04-22 19:30 55.67259 13.00903 34244 ft 440 kts 350°
2026-04-22 19:30 55.74106 12.97425 34227 ft 440 kts 350°
2026-04-22 19:31 55.79996 12.94419 34233 ft 441 kts 350°
2026-04-22 19:31 55.85889 12.91390 34238 ft 441 kts 350°
2026-04-22 19:32 55.91783 12.88346 34228 ft 441 kts 349°
2026-04-22 19:32 55.97609 12.84869 34245 ft 447 kts 340°
2026-04-22 19:33 56.03226 12.80110 34255 ft 447 kts 340°
2026-04-22 19:33 56.06041 12.77717 33857 ft 447 kts 341°
2026-04-22 19:33 56.08866 12.75395 33316 ft 446 kts 341°
2026-04-22 19:33 56.11693 12.73142 32779 ft 445 kts 342°
2026-04-22 19:34 56.14534 12.70912 32255 ft 446 kts 342°
2026-04-22 19:34 56.17373 12.68685 31739 ft 446 kts 341°
2026-04-22 19:34 56.20220 12.66438 31234 ft 446 kts 341°
2026-04-22 19:34 56.23052 12.64180 30728 ft 445 kts 341°
2026-04-22 19:35 56.25871 12.61907 30207 ft 442 kts 340°
2026-04-22 19:35 56.28664 12.59639 29619 ft 437 kts 340°
2026-04-22 19:35 56.30490 12.58153 29177 ft 434 kts 340°
2026-04-22 19:35 56.34146 12.55181 28316 ft 428 kts 340°
2026-04-22 19:36 56.36841 12.52990 27686 ft 423 kts 340°
2026-04-22 19:36 56.39516 12.50814 27085 ft 419 kts 340°
2026-04-22 19:36 56.42167 12.48659 26489 ft 415 kts 340°
2026-04-22 19:36 56.44787 12.46526 25912 ft 412 kts 340°
2026-04-22 19:37 56.47390 12.44402 25353 ft 408 kts 340°
2026-04-22 19:37 56.49964 12.42302 24798 ft 404 kts 339°
2026-04-22 19:37 56.52516 12.40221 24291 ft 400 kts 339°
2026-04-22 19:37 56.55036 12.38160 23768 ft 396 kts 339°
2026-04-22 19:38 56.57507 12.36135 23180 ft 393 kts 339°
2026-04-22 19:38 56.60019 12.34071 22634 ft 389 kts 339°
2026-04-22 19:38 56.62435 12.32087 22132 ft 385 kts 339°
2026-04-22 19:38 56.64865 12.30089 21639 ft 381 kts 339°
2026-04-22 19:39 56.67265 12.28112 21124 ft 378 kts 339°
2026-04-22 19:39 56.69654 12.26140 20607 ft 375 kts 338°
2026-04-22 19:39 56.72020 12.24186 20133 ft 372 kts 338°
2026-04-22 19:39 56.74368 12.22242 19670 ft 369 kts 338°
2026-04-22 19:40 56.76694 12.20309 19221 ft 365 kts 338°
2026-04-22 19:40 56.78995 12.18392 18769 ft 363 kts 338°
2026-04-22 19:40 56.81287 12.16485 18240 ft 361 kts 338°
2026-04-22 19:40 56.83564 12.14591 17669 ft 359 kts 338°
2026-04-22 19:41 56.85837 12.12695 17092 ft 358 kts 337°
2026-04-22 19:41 56.88095 12.10806 16537 ft 357 kts 337°
2026-04-22 19:41 56.90349 12.08918 15993 ft 355 kts 337°
2026-04-22 19:41 56.92585 12.07045 15477 ft 353 kts 337°
2026-04-22 19:42 56.94812 12.05186 14962 ft 350 kts 337°
2026-04-22 19:42 56.97036 12.03403 14487 ft 347 kts 338°
2026-04-22 19:42 56.99246 12.01689 14002 ft 344 kts 338°
2026-04-22 19:42 57.01446 12.00006 13470 ft 341 kts 338°
2026-04-22 19:43 57.06008 11.98424 12429 ft 334 kts
2026-04-22 19:43 57.08300 11.98938 11936 ft 331 kts
2026-04-22 19:43 57.10566 11.99510 11484 ft 325 kts
2026-04-22 19:44 57.12774 12.00056 11235 ft 315 kts
2026-04-22 19:44 57.14906 12.00584 10987 ft 305 kts
2026-04-22 19:44 57.16977 12.01097 10740 ft 296 kts
2026-04-22 19:44 57.18986 12.01593 10506 ft 288 kts
2026-04-22 19:45 57.20945 12.02080 10269 ft 280 kts
2026-04-22 19:45 57.22855 12.02554 10020 ft 273 kts
2026-04-22 19:45 57.24713 12.03016 9761 ft 266 kts
2026-04-22 19:45 57.26537 12.03469 9431 ft 262 kts
2026-04-22 19:46 57.28337 12.03918 9051 ft 260 kts
2026-04-22 19:46 57.30129 12.04366 8654 ft 258 kts
2026-04-22 19:46 57.31898 12.04809 8115 ft 256 kts
2026-04-22 19:46 57.33636 12.05242 7566 ft 254 kts
2026-04-22 19:47 57.35392 12.05682 7132 ft 254 kts
2026-04-22 19:47 57.37128 12.06119 6771 ft 251 kts
2026-04-22 19:47 57.38287 12.06411 6418 ft 248 kts
2026-04-22 19:47 57.40538 12.06979 5797 ft 240 kts
2026-04-22 19:48 57.42131 12.07388 5663 ft 222 kts
2026-04-22 19:48 57.43612 12.07819 5346 ft 214 kts 12°
2026-04-22 19:48 57.45011 12.08747 4904 ft 214 kts 24°
2026-04-22 19:48 57.46337 12.09953 4578 ft 210 kts 24°
2026-04-22 19:49 57.47626 12.11118 4317 ft 202 kts 23°
2026-04-22 19:49 57.48865 12.12233 4056 ft 194 kts 23°
2026-04-22 19:49 57.50060 12.13307 3809 ft 188 kts 24°
2026-04-22 19:49 57.51216 12.14348 3582 ft 180 kts 24°
2026-04-22 19:50 57.52312 12.15336 3329 ft 172 kts 24°
2026-04-22 19:50 57.53373 12.16292 3084 ft 167 kts 23°
2026-04-22 19:50 57.54403 12.17221 2861 ft 163 kts 23°
2026-04-22 19:50 57.55409 12.18129 2642 ft 157 kts 23°
2026-04-22 19:51 57.56356 12.18985 2426 ft 145 kts 23°
2026-04-22 19:51 57.57231 12.19776 2227 ft 136 kts 23°
2026-04-22 19:51 57.57787 12.20278 2137 ft 134 kts 22°
2026-04-22 19:51 57.58613 12.21025 1953 ft 131 kts 22°
2026-04-22 19:52 57.59433 12.21767 1767 ft 130 kts 22°
2026-04-22 19:52 57.60253 12.22511 1598 ft 133 kts 22°
2026-04-22 19:52 57.61084 12.23264 1386 ft 133 kts 22°
2026-04-22 19:52 57.62179 12.24250 1129 ft 131 kts 22°
2026-04-22 19:53 57.62738 12.24754 1015 ft 133 kts 23°
2026-04-22 19:53 57.63581 12.25512 813 ft 136 kts 24°
2026-04-22 19:53 57.64428 12.26281 643 ft 134 kts 24°
2026-04-22 19:53 57.65262 12.27048 496 ft 131 kts 24°
2026-04-22 19:54 57.65942 12.27664 506 ft 85 kts 26°
2026-04-22 19:54 57.66317 12.28011 510 ft 41 kts 26°
2026-04-22 19:54 57.66551 12.28233 512 ft 31 kts 33°
2026-04-22 19:54 57.66690 12.28502 512 ft 30 kts 54°
2026-04-22 19:55 57.66791 12.28776 513 ft 17 kts 50°
2026-04-22 19:55 57.66827 12.28886 514 ft 7 kts 100°
2026-04-22 19:55 57.66816 12.28940 516 ft 5 kts 114°
2026-04-22 19:55 57.66792 12.29033 516 ft 10 kts 116°
2026-04-22 19:56 57.66771 12.29142 516 ft 8 kts 81°
2026-04-22 19:56 57.66811 12.29198 516 ft 7 kts 26°
2026-04-22 19:56 57.66851 12.29235 516 ft 7 kts 26°
2026-04-22 19:56 57.66896 12.29277 516 ft 7 kts 26°
2026-04-22 19:57 57.66908 12.29344 516 ft 5 kts 108°
2026-04-22 19:57 57.66894 12.29399 516 ft 3 kts 116°
2026-04-22 19:57 57.66888 12.29422 516 ft 1 kts 116°
2026-04-22 19:57 57.66887 12.29425 516 ft 0 kts 116°